TimeEDT,TemperatureF,Dew PointF,Humidity,Sea Level PressureIn,VisibilityMPH,Wind Direction,Wind SpeedMPH,Gust SpeedMPH,PrecipitationIn,Events,Conditions,WindDirDegrees,DateUTC
12:53 AM,54.0,52.0,93,29.98,9.0,Calm,Calm,-,N/A,,Clear,0,2013-10-19 04:53:00
1:53 AM,54.0,53.1,97,29.98,8.0,Calm,Calm,-,N/A,,Mostly Cloudy,0,2013-10-19 05:53:00
2:53 AM,54.0,52.0,93,29.97,8.0,Calm,Calm,-,N/A,,Clear,0,2013-10-19 06:53:00
3:53 AM,55.0,53.1,93,29.95,8.0,Calm,Calm,-,N/A,,Mostly Cloudy,0,2013-10-19 07:53:00
4:53 AM,55.0,53.1,93,29.94,8.0,Calm,Calm,-,0.01,,Mostly Cloudy,0,2013-10-19 08:53:00
5:53 AM,54.0,53.1,97,29.95,5.0,Calm,Calm,-,N/A,,Scattered Clouds,0,2013-10-19 09:53:00
6:53 AM,54.0,53.1,97,29.95,6.0,Calm,Calm,-,N/A,,Overcast,0,2013-10-19 10:53:00
7:53 AM,55.0,53.1,93,29.95,6.0,Calm,Calm,-,N/A,,Overcast,0,2013-10-19 11:53:00
8:53 AM,55.0,53.1,93,29.96,6.0,Calm,Calm,-,N/A,,Partly Cloudy,0,2013-10-19 12:53:00
9:53 AM,57.0,54.0,89,29.99,10.0,Calm,Calm,-,N/A,,Partly Cloudy,0,2013-10-19 13:53:00
10:53 AM,57.9,54.0,87,29.98,10.0,Calm,Calm,-,N/A,,Mostly Cloudy,0,2013-10-19 14:53:00
11:53 AM,59.0,55.0,87,29.97,9.0,Calm,Calm,-,N/A,,Overcast,0,2013-10-19 15:53:00
12:53 PM,61.0,55.0,81,29.96,10.0,Calm,Calm,-,0.00,,Mostly Cloudy,0,2013-10-19 16:53:00
1:53 PM,60.1,55.0,83,29.97,10.0,Calm,Calm,-,0.01,,Partly Cloudy,0,2013-10-19 17:53:00
2:53 PM,62.1,55.0,78,29.94,10.0,Calm,Calm,-,N/A,,Partly Cloudy,0,2013-10-19 18:53:00
3:53 PM,64.0,54.0,70,29.93,10.0,Calm,Calm,-,N/A,,Partly Cloudy,0,2013-10-19 19:53:00
4:53 PM,64.9,53.1,65,29.94,10.0,Calm,Calm,-,N/A,,Partly Cloudy,0,2013-10-19 20:53:00
5:53 PM,64.9,52.0,63,29.94,10.0,Calm,Calm,-,N/A,,Clear,0,2013-10-19 21:53:00
6:53 PM,57.0,55.0,93,29.94,10.0,Calm,Calm,-,N/A,,Clear,0,2013-10-19 22:53:00
7:53 PM,57.0,54.0,89,29.95,9.0,Calm,Calm,-,N/A,,Mostly Cloudy,0,2013-10-19 23:53:00
8:53 PM,57.0,54.0,89,29.96,9.0,Calm,Calm,-,N/A,,Mostly Cloudy,0,2013-10-20 00:53:00
9:53 PM,55.9,54.0,93,29.97,8.0,Calm,Calm,-,N/A,,Scattered Clouds,0,2013-10-20 01:53:00
10:53 PM,57.0,51.1,81,29.99,10.0,Calm,Calm,-,N/A,,Overcast,0,2013-10-20 02:53:00
11:53 PM,54.0,48.9,83,30.01,10.0,Calm,Calm,-,N/A,,Scattered Clouds,0,2013-10-20 03:53:00